DW8453 Bekkjarvik NO current weather conditions

sailwx.info

Wind from 183 at 0 knots gusting 2

Air temperature 17.8° C
Dewpoint 10.6° C

Last reported at 2014-Sep-18 10:53 UTC.
Time now 2014-Sep-18 11:41 UTC

Location: N 60°01' E 005°12'.
View on Google Maps.

See reports from other nearby stations

  
Tides and Currents Weather Stations Pressure Air Temp Water Temp Dewpoint Dewpoint Depression Visibility Wind Speed Wind Dir Waves Ship Positions
date/time (UTC)wind fromknots sea level pressurealtimeterstation pressurevisibilityair tempwater tempwave heightnotes
2014-Sep-18 10:53 183 0 gusting 2 17.8
2014-Sep-18 10:43 107 1 gusting 2 17.8
2014-Sep-18 10:33 135 2 gusting 5 17.8
2014-Sep-18 10:23 209 2 gusting 4 17.8
2014-Sep-18 10:13 193 3 gusting 4 18.3
2014-Sep-18 10:03 182 2 gusting 4 18.3
2014-Sep-18 09:53 141 2 gusting 4 18.3
2014-Sep-18 09:43 187 2 gusting 5 17.8
2014-Sep-18 09:33 172 1 gusting 5 17.8
2014-Sep-18 09:23 156 3 gusting 5 17.8
2014-Sep-18 09:13 186 1 gusting 2 17.2
2014-Sep-18 09:03 204 1 gusting 2 16.7
2014-Sep-18 08:53 207 2 gusting 4 16.7
2014-Sep-18 08:43 211 2 gusting 4 16.7
2014-Sep-18 08:33 135 3 gusting 5 16.7
2014-Sep-18 08:23 188 2 gusting 4 15.6
2014-Sep-18 08:13 178 2 gusting 4 14.4
2014-Sep-18 08:03 195 1 gusting 4 13.9
2014-Sep-18 07:53 172 1 gusting 2 13.3
2014-Sep-18 07:43 196 1 gusting 2 13.3
2014-Sep-18 07:33 165 0 gusting 4 12.8
2014-Sep-18 07:23 106 1 gusting 2 12.2
2014-Sep-18 07:13 119 1 gusting 2 11.1
2014-Sep-18 07:03 178 0 gusting 1 10.6
2014-Sep-18 06:53 165 0 gusting 1 10.6
2014-Sep-18 06:43 135 1 gusting 1 10.0
2014-Sep-18 06:33 183 10.0
2014-Sep-18 06:23 112 0 gusting 0 10.0
2014-Sep-18 06:13 248 0 gusting 0 9.4
2014-Sep-18 06:03 150 0 gusting 1 9.4
2014-Sep-18 05:53 182 1 gusting 2 9.4
2014-Sep-18 05:43 154 1 gusting 1 9.4
2014-Sep-18 05:33 188 0 gusting 2 9.4
2014-Sep-18 05:23 206 1 gusting 2 9.4
2014-Sep-18 05:13 157 2 gusting 2 9.4
2014-Sep-18 05:03 146 0 gusting 4 9.4
2014-Sep-18 04:53 140 1 gusting 2 9.4
2014-Sep-18 04:43 206 0 gusting 1 9.4
2014-Sep-18 04:33 128 0 gusting 1 9.4
2014-Sep-18 04:23 217 1 gusting 1 9.4
2014-Sep-18 04:13 158 0 gusting 1 9.4
2014-Sep-18 03:53 206 9.4
2014-Sep-18 03:43 184 0 gusting 0 9.4
2014-Sep-18 03:33 158 0 gusting 1 9.4
2014-Sep-18 03:23 158 1 gusting 1 9.4
2014-Sep-18 03:13 203 9.4
2014-Sep-18 03:03 209 0 gusting 0 9.4
2014-Sep-18 02:53 227 1 gusting 1 9.4
2014-Sep-18 02:43 161 2 gusting 2 9.4
2014-Sep-18 02:33 147 1 gusting 1 9.4
2014-Sep-18 02:23 164 1 gusting 2 9.4
2014-Sep-18 02:13 163 1 gusting 1 9.4
2014-Sep-18 02:03 195 1 gusting 1 9.4
2014-Sep-18 01:53 147 1 gusting 2 9.4
2014-Sep-18 01:43 161 1 gusting 4 10.0
2014-Sep-18 01:33 166 2 gusting 2 9.4
2014-Sep-18 01:23 171 1 gusting 2 10.0
2014-Sep-18 01:13 167 1 gusting 2 10.0
2014-Sep-18 01:03 166 2 gusting 4 10.0
2014-Sep-18 00:53 151 2 gusting 4 10.0
2014-Sep-18 00:43 176 2 gusting 4 10.0
2014-Sep-18 00:33 181 2 gusting 4 10.0
2014-Sep-18 00:23 157 2 gusting 2 10.0
2014-Sep-18 00:13 181 2 gusting 4 10.6
2014-Sep-18 00:03 191 3 gusting 4 10.6
2014-Sep-17 23:53 161 2 gusting 4 10.6
2014-Sep-17 23:43 144 3 gusting 4 10.6
2014-Sep-17 23:33 151 4 gusting 4 10.6
2014-Sep-17 23:23 173 2 gusting 4 10.6
2014-Sep-17 23:13 191 2 gusting 4 10.6
2014-Sep-17 23:03 176 2 gusting 4 10.6
2014-Sep-17 22:53 198 2 gusting 4 10.6
2014-Sep-17 22:43 176 4 gusting 4 10.6
2014-Sep-17 22:33 164 2 gusting 4 10.6
2014-Sep-17 22:23 169 1 gusting 2 11.1
2014-Sep-17 22:13 127 2 gusting 4 11.1
2014-Sep-17 22:03 131 2 gusting 4 11.1
2014-Sep-17 21:53 162 2 gusting 2 11.1
2014-Sep-17 21:43 135 2 gusting 4 11.1
2014-Sep-17 21:33 172 2 gusting 4 11.1
2014-Sep-17 21:23 161 2 gusting 2 11.1
2014-Sep-17 21:13 181 1 gusting 2 11.7
2014-Sep-17 21:03 158 1 gusting 2 11.7
2014-Sep-17 20:53 176 1 gusting 2 11.7
2014-Sep-17 20:43 158 1 gusting 1 12.2
2014-Sep-17 20:23 138 0 gusting 1 12.8
2014-Sep-17 20:13 071 1 gusting 1 12.8
2014-Sep-17 20:03 045 12.8
2014-Sep-17 19:53 026 0 gusting 2 13.3
2014-Sep-17 19:43 003 2 gusting 4 13.3
2014-Sep-17 19:33 026 0 gusting 1 13.3
2014-Sep-17 19:23 004 0 gusting 1 13.3
2014-Sep-17 19:13 341 13.3
2014-Sep-17 19:03 345 0 gusting 0 13.3
2014-Sep-17 18:53 342 13.3
2014-Sep-17 18:43 318 0 gusting 0 13.3
2014-Sep-17 18:33 315 13.3
2014-Sep-17 18:23 012 0 gusting 1 13.3
2014-Sep-17 18:13 296 0 gusting 0 13.9
2014-Sep-17 17:53 318 14.4
2014-Sep-17 17:43 004 14.4
2014-Sep-17 17:33 004 15.0
2014-Sep-17 17:23 338 15.0
2014-Sep-17 17:13 004 15.6
2014-Sep-17 17:03 358 0 gusting 0 15.6
2014-Sep-17 16:53 310 15.6
2014-Sep-17 16:43 026 15.6
2014-Sep-17 16:33 004 15.6
2014-Sep-17 16:23 004 0 gusting 1 15.6
2014-Sep-17 16:13 331 16.1
2014-Sep-17 16:03 002 0 gusting 0 16.1
2014-Sep-17 15:53 004 16.1
2014-Sep-17 15:43 020 0 gusting 1 16.1
2014-Sep-17 15:33 318 0 gusting 1 16.1
2014-Sep-17 15:23 342 0 gusting 2 16.1
2014-Sep-17 15:13 003 0 gusting 1 16.7
2014-Sep-17 15:03 024 1 gusting 4 16.7
2014-Sep-17 14:53 330 1 gusting 4 16.7
2014-Sep-17 14:43 16.7
2014-Sep-17 14:33 349 1 gusting 2 16.7
2014-Sep-17 14:23 339 1 gusting 4 16.7
2014-Sep-17 14:13 001 0 gusting 2 16.7
2014-Sep-17 14:03 001 1 gusting 1 17.2
2014-Sep-17 13:53 007 1 gusting 2 17.2
2014-Sep-17 13:43 007 0 gusting 2 17.2
2014-Sep-17 13:33 001 0 gusting 2 17.2
2014-Sep-17 13:23 332 2 gusting 5 17.2
2014-Sep-17 13:13 342 1 gusting 6 17.2
2014-Sep-17 13:03 354 2 gusting 6 17.2
2014-Sep-17 12:53 355 2 gusting 2 17.2
2014-Sep-17 12:43 338 2 gusting 5 17.8
2014-Sep-17 12:33 005 1 gusting 2 17.8
2014-Sep-17 12:23 348 1 gusting 4 17.8
2014-Sep-17 12:13 343 2 gusting 6 17.8
2014-Sep-17 12:03 009 2 gusting 6 17.8
2014-Sep-17 11:53 037 2 gusting 4 17.8
2014-Sep-17 11:43 341 3 gusting 6 17.8
2014-Sep-17 11:33 029 2 gusting 5 18.3
2014-Sep-17 11:22 333 1 gusting 2 18.3
2014-Sep-17 11:13 043 1 gusting 2 18.9
2014-Sep-17 11:03 127 1 gusting 2 19.4
2014-Sep-17 10:53 156 2 gusting 4 19.4
2014-Sep-17 10:43 147 2 gusting 5 19.4
2014-Sep-17 10:32 142 1 gusting 2 19.4
2014-Sep-17 10:23 158 1 gusting 2 19.4
2014-Sep-17 10:13 163 1 gusting 4 19.4
2014-Sep-17 10:03 181 2 gusting 4 19.4
2014-Sep-17 09:53 136 3 gusting 4 19.4
2014-Sep-17 09:43 202 1 gusting 2 19.4
2014-Sep-17 09:33 179 1 gusting 2 18.9
2014-Sep-17 09:23 167 1 gusting 4 19.4
2014-Sep-17 09:13 137 2 gusting 4 18.9
2014-Sep-17 09:03 162 2 gusting 2 18.3
2014-Sep-17 08:53 124 2 gusting 2 18.3
2014-Sep-17 08:43 131 2 gusting 5 18.3
2014-Sep-17 08:33 153 1 gusting 5 17.8
2014-Sep-17 08:23 114 4 gusting 6 17.8
2014-Sep-17 08:13 151 2 gusting 5 17.2
2014-Sep-17 08:03 128 2 gusting 5 16.7
2014-Sep-17 07:53 112 2 gusting 4 16.7
2014-Sep-17 07:43 097 2 gusting 6 15.6
2014-Sep-17 07:33 124 3 gusting 6 15.0
2014-Sep-17 07:23 140 3 gusting 7 14.4
2014-Sep-17 07:13 165 3 gusting 6 13.3
2014-Sep-17 07:03 154 2 gusting 5 13.3
2014-Sep-17 06:53 162 3 gusting 5 12.8
2014-Sep-17 06:43 158 3 gusting 6 12.2
2014-Sep-17 06:33 148 1 gusting 2 12.8
2014-Sep-17 06:23 122 1 gusting 4 11.1
2014-Sep-17 06:13 133 2 gusting 4 11.1
2014-Sep-17 06:03 149 3 gusting 4 11.1
2014-Sep-17 05:53 145 2 gusting 4 11.1
2014-Sep-17 05:43 133 2 gusting 2 11.1
2014-Sep-17 05:33 147 2 gusting 5 11.1
2014-Sep-17 05:23 154 4 gusting 5 11.1
2014-Sep-16 19:53 135 3 gusting 4 13.3
2014-Sep-16 19:43 131 2 gusting 2 13.3
2014-Sep-16 19:33 116 1 gusting 2 13.3
2014-Sep-16 19:23 148 2 gusting 4 13.9
2014-Sep-16 19:13 142 2 gusting 2 13.9
2014-Sep-16 19:03 151 0 gusting 1 14.4
2014-Sep-16 18:53 141 1 gusting 1 15.0
2014-Sep-16 18:43 135 0 gusting 0 15.0
2014-Sep-16 18:33 315 15.6
2014-Sep-16 18:23 315 15.6
2014-Sep-16 18:13 292 16.1
2014-Sep-16 18:03 16.1
2014-Sep-16 17:53 356 0 gusting 0 16.1
2014-Sep-16 17:43 292 0 gusting 1 16.1
2014-Sep-16 17:33 270 0 gusting 1 16.7
2014-Sep-16 17:23 292 16.7
2014-Sep-16 17:13 291 17.2
2014-Sep-16 17:03 320 17.8
2014-Sep-16 16:53 337 17.2
2014-Sep-16 16:43 315 17.2
2014-Sep-16 16:33 338 17.2
2014-Sep-16 16:23 320 0 gusting 0 17.8
2014-Sep-16 16:13 324 0 gusting 1 17.8
2014-Sep-16 16:03 328 0 gusting 1 17.8
2014-Sep-16 15:53 306 0 gusting 1 17.8
2014-Sep-16 15:43 325 0 gusting 1 18.3
2014-Sep-16 15:33 327 0 gusting 1 18.3
2014-Sep-16 15:23 012 0 gusting 0 18.3
2014-Sep-16 15:13 333 0 gusting 0 18.3
2014-Sep-16 15:03 18.3
2014-Sep-16 14:53 345 0 gusting 1 18.3
2014-Sep-16 14:43 022 18.9
2014-Sep-16 14:33 338 0 gusting 0 18.9
2014-Sep-16 14:23 340 0 gusting 0 18.9
2014-Sep-16 14:13 235 0 gusting 1 18.9
2014-Sep-16 14:03 295 19.4
2014-Sep-16 13:43 307 1 gusting 1 19.4
2014-Sep-16 13:33 340 0 gusting 1 19.4
2014-Sep-16 13:23 19.4
2014-Sep-16 13:13 342 2 gusting 5 19.4
2014-Sep-16 13:03 341 0 gusting 1 19.4
2014-Sep-16 12:53 180 0 gusting 1 19.4
2014-Sep-16 12:43 112 0 gusting 1 19.4
2014-Sep-16 12:33 184 1 gusting 5 19.4
2014-Sep-16 12:23 183 4 gusting 5 19.4
2014-Sep-16 12:13 237 0 gusting 4 19.4
2014-Sep-16 12:03 161 1 gusting 2 19.4
2014-Sep-16 11:53 115 2 gusting 4 18.9
2014-Sep-16 11:43 177 1 gusting 5 18.9
2014-Sep-16 11:33 186 2 gusting 4 19.4
2014-Sep-16 11:23 097 1 gusting 4 18.9
2014-Sep-16 11:13 175 0 gusting 2 19.4
2014-Sep-16 11:03 132 0 gusting 2 19.4